WetterOnline ( https://www.wetteronline.de )

Wetter aktuell Regen

Aktuelles Wetter: Zwiesel (613m)

6-stündlich | Neueste Meldungen
Ortszeit Temperatur Wetter
Mo, 06.12. 19:00 -0.5° C bewölkt
Mo, 06.12. 13:00 0.9° C bewölkt
Mo, 06.12. 7:00 -1.5° C bedeckt
Mo, 06.12. 1:00 -0.6° C bedeckt
So, 05.12. 19:00 -0.6° C Nebel
So, 05.12. 13:00 1.4° C wolkig
So, 05.12. 7:00 0.9° C bewölkt
So, 05.12. 1:00 1.2° C leichter Regen
Ortszeit Temperatur Wetter
Mo, 06.12. 22:30 -1.1° C bedeckt
Mo, 06.12. 22:20 -1.1° C bedeckt
Mo, 06.12. 22:10 -1.1° C bedeckt
Mo, 06.12. 22:00 -1.2° C bewölkt
Mo, 06.12. 21:50 -1.2° C bewölkt
Mo, 06.12. 21:40 -1.1° C bedeckt
Mo, 06.12. 21:30 -1.1° C bedeckt
Mo, 06.12. 21:00 -1.0° C bewölkt
Mo, 06.12. 20:30 -1.0° C bedeckt
Mo, 06.12. 20:00 -0.5° C bedeckt
Mo, 06.12. 19:30 -0.5° C bedeckt
Ortszeit Relative Feuchte Sichtweite
Mo, 06.12. 19:00 90% 17 km
Mo, 06.12. 13:00 83% 27 km
Mo, 06.12. 7:00 96% 22 km
Mo, 06.12. 1:00 88% 45 km
So, 05.12. 19:00 99% 0.6 km
So, 05.12. 13:00 85% 35 km
So, 05.12. 7:00 85% 55 km
So, 05.12. 1:00 96% 9 km
Ortszeit Relative Feuchte Sichtweite
Mo, 06.12. 22:30 94% 10 km
Mo, 06.12. 22:20 94% -
Mo, 06.12. 22:10 92% -
Mo, 06.12. 22:00 92% 16 km
Mo, 06.12. 21:50 92% -
Mo, 06.12. 21:40 92% -
Mo, 06.12. 21:30 93% 13 km
Mo, 06.12. 21:00 92% 14 km
Mo, 06.12. 20:30 93% 12 km
Mo, 06.12. 20:00 91% 14 km
Mo, 06.12. 19:30 91% 15 km
Ortszeit Niederschlagsmenge Niederschlagsart
Mo, 06.12. 19:00 0.3 l/m2 in 12 Std. Schnee, Niederschlag
Mo, 06.12. 13:00 0.1 l/m2 in 6 Std. Schnee
Mo, 06.12. 7:00 0.0 l/m2 in 12 Std. -
Mo, 06.12. 1:00 0.0 l/m2 in 6 Std. -
So, 05.12. 19:00 0.1 l/m2 in 12 Std. -
So, 05.12. 13:00 0.1 l/m2 in 6 Std. Schnee, Sprühregen
So, 05.12. 7:00 10 l/m2 in 12 Std. Schnee, Regen
So, 05.12. 1:00 9 l/m2 in 6 Std. Regen
Ortszeit Niederschlagsmenge Niederschlagsart
Mo, 06.12. 22:30 0.0 l/m2 in 1 Std. -
Mo, 06.12. 22:20 keine Meldung -
Mo, 06.12. 22:10 keine Meldung -
Mo, 06.12. 22:00 0.1 l/m2 in 1 Std. Schnee
Mo, 06.12. 21:50 keine Meldung -
Mo, 06.12. 21:40 keine Meldung -
Mo, 06.12. 21:30 0.1 l/m2 in 1 Std. gefrierender Regen
Mo, 06.12. 21:00 0.0 l/m2 in 1 Std. -
Mo, 06.12. 20:30 0.0 l/m2 in 1 Std. -
Mo, 06.12. 20:00 0.1 l/m2 in 1 Std. Schnee
Mo, 06.12. 19:30 0.1 l/m2 in 1 Std. gefrierender Regen
Ortszeit Stärke Spitze Richtung
km/h Bft. km/h Grad Sektor
Mo, 06.12. 19:00 4 1 22 240° SW
Mo, 06.12. 13:00 7 2 14 210° SW
Mo, 06.12. 7:00 0 0 7 - -
Mo, 06.12. 1:00 4 1 7 70° O
So, 05.12. 19:00 0 0 11 - -
So, 05.12. 13:00 4 1 18 190° S
So, 05.12. 7:00 9 2 37 270° W
So, 05.12. 1:00 7 2 18 240° SW
Ortszeit Stärke Spitze Richtung
km/h Bft. km/h Grad Sektor
Mo, 06.12. 22:30 7 2 11 240° SW
Mo, 06.12. 22:20 7 2 - 240° SW
Mo, 06.12. 22:10 4 1 - 200° S
Mo, 06.12. 22:00 7 2 11 70° O
Mo, 06.12. 21:50 7 2 - 70° O
Mo, 06.12. 21:40 4 1 - 110° O
Mo, 06.12. 21:30 4 1 7 70° O
Mo, 06.12. 21:00 2 1 9 40° NO
Mo, 06.12. 20:30 7 2 11 110° O
Mo, 06.12. 20:00 6 1 13 220° SW
Mo, 06.12. 19:30 7 2 11 250° W
Ortszeit Untergrenze Bedeckung Gattung
total tief tief mittel hoch
Mo, 06.12. 19:00 300 m 7/8 7/8 - - -
Mo, 06.12. 13:00 240 m 7/8 7/8 - - -
Mo, 06.12. 7:00 120 m 8/8 8/8 - - -
Mo, 06.12. 1:00 1200 m 8/8 8/8 - - -
So, 05.12. 19:00 150 m 8/8 8/8 - - -
So, 05.12. 13:00 1500 m 7/8 3/8 - - -
So, 05.12. 7:00 510 m 7/8 7/8 - - -
So, 05.12. 1:00 60 m 7/8 7/8 - - -
Ortszeit Bedeckungsgrad in Achtel und Wolkenuntergrenze
Mo, 06.12. 22:30 1(150m) 3(360m) 8(1500m)
Mo, 06.12. 22:20 1(150m) 3(360m) 8(1500m)
Mo, 06.12. 22:10 1(360m) 8(1500m)
Mo, 06.12. 22:00 4(240m) 7(1500m) 8(1500m)
Mo, 06.12. 21:50 4(240m) 7(1500m)
Mo, 06.12. 21:40 8(240m) 8(1440m)
Mo, 06.12. 21:30 7(240m) 8(1410m)
Mo, 06.12. 21:00 7(210m) 7(1500m)
Mo, 06.12. 20:30 8(1500m) 8(1500m)
Mo, 06.12. 20:00 8(1440m)
Mo, 06.12. 19:30 8(1350m)
Ortszeit Luftdruck NN (hPa) Tendenz (hPa in 3 Std.)
Mo, 06.12. 19:00 1016 + 0,6
Mo, 06.12. 13:00 1015 + 0,2
Mo, 06.12. 7:00 1013 + 1,5
Mo, 06.12. 1:00 1011 + 1,0
So, 05.12. 19:00 1009 + 1,0
So, 05.12. 13:00 1006 + 0,3
So, 05.12. 7:00 1006 + 1,3
So, 05.12. 1:00 1002 + 0,9
Ortszeit Luftdruck NN (hPa) Tendenz (hPa in 3 Std.)
Mo, 06.12. 22:30 1015 - 0,9
Mo, 06.12. 22:20 1015 keine Meldung
Mo, 06.12. 22:10 1015 keine Meldung
Mo, 06.12. 22:00 1015 - 1,1
Mo, 06.12. 21:50 1015 keine Meldung
Mo, 06.12. 21:40 1015 keine Meldung
Mo, 06.12. 21:30 1015 - 0,8
Mo, 06.12. 21:00 1015 - 0,8
Mo, 06.12. 20:30 1016 - 0,6
Mo, 06.12. 20:00 1016 + 0,1
Mo, 06.12. 19:30 1016 + 0,3
Ortszeit Schneehöhe (cm)
Mo, 06.12. 19:00 11
Mo, 06.12. 13:00 10
Mo, 06.12. 7:00 10
Mo, 06.12. 1:00 10
So, 05.12. 19:00 10
So, 05.12. 13:00 11
So, 05.12. 7:00 11
So, 05.12. 1:00 11
Ortszeit Schneehöhe (cm)
Mo, 06.12. 22:30 11
Mo, 06.12. 22:20 11
Mo, 06.12. 22:10 11
Mo, 06.12. 22:00 11
Mo, 06.12. 21:50 11
Mo, 06.12. 21:40 11
Mo, 06.12. 21:30 11
Mo, 06.12. 21:00 11
Mo, 06.12. 20:30 11
Mo, 06.12. 20:00 11
Mo, 06.12. 19:30 11
Link zu dieser Seite / Seite empfehlen

Das Wetter in ...